MQT83M BGGH-CYFB

Flight info

Callsign MQT83M
Flight time 3h 1m
Altitude 10000
Route AMABI1B AMABI DCT MUSVA/N0200F100 DCT DUTUM DCT BILKU
Aircraft AEST/L-SBDFGRY/S

Departure

Time 2026-04-20 14:35
Airport Nuuk International Airport (BGGH)

Arrival

Time 2026-04-20 17:36
Airport Iqaluit Airport (CYFB)
Time Latitude Longitude Altitude Speed Heading
2026-04-20 14:27 64.19082 -51.67355 275 ft 0 kts 108°
2026-04-20 14:27 64.19072 -51.67342 302 ft 4 kts 194°
2026-04-20 14:27 64.19056 -51.67370 269 ft 0 kts 203°
2026-04-20 14:28 64.19055 -51.67371 270 ft 0 kts 207°
2026-04-20 14:28 64.19054 -51.67372 270 ft 0 kts 213°
2026-04-20 14:28 64.19049 -51.67395 275 ft 4 kts 261°
2026-04-20 14:28 64.19051 -51.67542 275 ft 13 kts 281°
2026-04-20 14:29 64.19070 -51.67672 275 ft 2 kts 263°
2026-04-20 14:29 64.19069 -51.67676 275 ft 0 kts 243°
2026-04-20 14:29 64.19067 -51.67691 275 ft 3 kts 270°
2026-04-20 14:29 64.19096 -51.67791 275 ft 9 kts 287°
2026-04-20 14:30 64.19084 -51.67828 275 ft 0 kts 179°
2026-04-20 14:32 64.19083 -51.67828 275 ft 0 kts 179°
2026-04-20 14:33 64.19074 -51.67829 275 ft 5 kts 186°
2026-04-20 14:33 64.19021 -51.67850 275 ft 9 kts 193°
2026-04-20 14:33 64.18956 -51.67904 275 ft 10 kts 216°
2026-04-20 14:33 64.18942 -51.68040 275 ft 10 kts 218°
2026-04-20 14:34 64.18921 -51.68048 274 ft 0 kts 186°
2026-04-20 14:34 64.18895 -51.68071 274 ft 25 kts 200°
2026-04-20 14:34 64.18533 -51.68296 280 ft 74 kts 188°
2026-04-20 14:35 64.18102 -51.68963 422 ft 82 kts 205°
2026-04-20 14:35 64.17691 -51.70261 641 ft 117 kts 230°
2026-04-20 14:35 64.17471 -51.72212 1022 ft 136 kts 255°
2026-04-20 14:35 64.17538 -51.74449 1603 ft 148 kts 262°
2026-04-20 14:36 64.17774 -51.76908 2140 ft 163 kts 260°
2026-04-20 14:36 64.18067 -51.79448 2678 ft 166 kts 262°
2026-04-20 14:36 64.18433 -51.82009 3199 ft 173 kts 264°
2026-04-20 14:36 64.18696 -51.83745 3517 ft 175 kts 263°
2026-04-20 14:37 64.19204 -51.87288 4173 ft 175 kts 263°
2026-04-20 14:37 64.19474 -51.89041 4446 ft 177 kts 264°
2026-04-20 14:37 64.19774 -51.91746 4934 ft 170 kts 252°
2026-04-20 14:37 64.19878 -51.94322 5415 ft 152 kts 238°
2026-04-20 14:38 64.19721 -51.96529 5822 ft 130 kts 225°
2026-04-20 14:38 64.19413 -51.98326 6104 ft 116 kts 221°
2026-04-20 14:38 64.19129 -52.00060 6343 ft 115 kts 221°
2026-04-20 14:38 64.18795 -52.01691 6509 ft 113 kts 222°
2026-04-20 14:39 64.18507 -52.03425 6637 ft 120 kts 230°
2026-04-20 14:39 64.18329 -52.05384 6775 ft 129 kts 234°
2026-04-20 14:39 64.18166 -52.07411 6938 ft 130 kts 236°
2026-04-20 14:39 64.18004 -52.09450 7133 ft 129 kts 232°
2026-04-20 14:40 64.17669 -52.11246 7342 ft 120 kts 216°
2026-04-20 14:40 64.17173 -52.12669 7507 ft 110 kts 212°
2026-04-20 14:40 64.16718 -52.14025 7757 ft 106 kts 218°
2026-04-20 14:40 64.16303 -52.15478 7923 ft 112 kts 217°
2026-04-20 14:41 64.15792 -52.16811 8115 ft 109 kts 206°
2026-04-20 14:41 64.15197 -52.17774 8346 ft 102 kts 203°
2026-04-20 14:41 64.14599 -52.18650 8513 ft 103 kts 202°
2026-04-20 14:41 64.13961 -52.19465 8652 ft 106 kts 200°
2026-04-20 14:42 64.13303 -52.20171 8848 ft 103 kts 197°
2026-04-20 14:42 64.12640 -52.20841 8981 ft 106 kts 202°
2026-04-20 14:42 64.12000 -52.21745 9099 ft 110 kts 211°
2026-04-20 14:42 64.11486 -52.23121 9194 ft 120 kts 229°
2026-04-20 14:43 64.11292 -52.25105 9229 ft 139 kts 256°
2026-04-20 14:43 64.11580 -52.27377 9323 ft 159 kts 276°
2026-04-20 14:43 64.12152 -52.29684 9453 ft 172 kts 284°
2026-04-20 14:43 64.12776 -52.32008 9675 ft 171 kts 285°
2026-04-20 14:44 64.13456 -52.34280 9871 ft 174 kts 284°
2026-04-20 14:44 64.13970 -52.36688 10080 ft 166 kts 271°
2026-04-20 14:44 64.14194 -52.39165 10305 ft 152 kts 256°
2026-04-20 14:44 64.14242 -52.41495 10478 ft 142 kts 252°
2026-04-20 14:45 64.14263 -52.43727 10622 ft 139 kts 253°
2026-04-20 14:45 64.14328 -52.45935 10753 ft 138 kts 258°
2026-04-20 14:45 64.14469 -52.48142 10846 ft 142 kts 260°
2026-04-20 14:45 64.14681 -52.50353 10954 ft 144 kts 265°
2026-04-20 14:46 64.14901 -52.52620 11049 ft 145 kts 263°
2026-04-20 14:46 64.15138 -52.54858 11176 ft 144 kts 264°
2026-04-20 14:46 64.15333 -52.57098 11238 ft 145 kts 261°
2026-04-20 14:46 64.15428 -52.59381 11309 ft 141 kts 255°
2026-04-20 14:47 64.15504 -52.61589 11403 ft 138 kts 259°
2026-04-20 14:47 64.15666 -52.63792 11462 ft 141 kts 261°
2026-04-20 14:47 64.15833 -52.65925 11623 ft 132 kts 261°
2026-04-20 14:48 64.16095 -52.70081 11728 ft 129 kts 255°
2026-04-20 14:48 64.16139 -52.72122 11804 ft 128 kts 252°
2026-04-20 14:48 64.16165 -52.74165 11852 ft 128 kts 249°
2026-04-20 14:48 64.16150 -52.76177 11911 ft 125 kts 246°
2026-04-20 14:49 64.16049 -52.78130 11967 ft 121 kts 239°
2026-04-20 14:49 64.15917 -52.79992 11979 ft 122 kts 245°
2026-04-20 14:49 64.15836 -52.81955 11987 ft 126 kts 245°
2026-04-20 14:49 64.15745 -52.83973 11978 ft 129 kts 245°
2026-04-20 14:50 64.15643 -52.86037 11979 ft 132 kts 244°
2026-04-20 14:50 64.15533 -52.88139 11981 ft 134 kts 245°
2026-04-20 14:50 64.15411 -52.90298 11980 ft 140 kts 245°
2026-04-20 14:50 64.15266 -52.92565 11981 ft 147 kts 245°
2026-04-20 14:51 64.15102 -52.94924 11980 ft 153 kts 245°
2026-04-20 14:51 64.14931 -52.97402 11967 ft 161 kts 245°
2026-04-20 14:51 64.14751 -52.99975 11959 ft 166 kts 245°
2026-04-20 14:51 64.14429 -53.02513 11973 ft 166 kts 229°
2026-04-20 14:52 64.13794 -53.04660 11951 ft 160 kts 221°
2026-04-20 14:52 64.13118 -53.06655 11951 ft 158 kts 224°
2026-04-20 14:52 64.12553 -53.08838 11925 ft 162 kts 232°
2026-04-20 14:52 64.12161 -53.11286 11936 ft 166 kts 240°
2026-04-20 14:53 64.11935 -53.13915 11953 ft 171 kts 247°
2026-04-20 14:53 64.11832 -53.16652 11962 ft 175 kts 251°
2026-04-20 14:53 64.11807 -53.19469 11964 ft 179 kts 253°
2026-04-20 14:53 64.11829 -53.22341 11953 ft 182 kts 255°
2026-04-20 14:54 64.11876 -53.25254 11954 ft 184 kts 256°
2026-04-20 14:54 64.11937 -53.28198 11952 ft 186 kts 256°
2026-04-20 14:54 64.12004 -53.31154 11951 ft 186 kts 256°
2026-04-20 14:54 64.12071 -53.34117 11952 ft 187 kts 256°
2026-04-20 14:55 64.12136 -53.37091 11952 ft 188 kts 256°
2026-04-20 14:55 64.12198 -53.40081 11938 ft 188 kts 256°
2026-04-20 14:55 64.12261 -53.43081 11937 ft 189 kts 256°
2026-04-20 14:55 64.12322 -53.46054 11930 ft 190 kts 256°
2026-04-20 14:56 64.12386 -53.49074 11940 ft 190 kts 257°
2026-04-20 14:56 64.12465 -53.52032 11923 ft 181 kts 257°
2026-04-20 14:56 64.12547 -53.54852 11932 ft 174 kts 255°
2026-04-20 14:56 64.12600 -53.57561 11921 ft 167 kts 254°
2026-04-20 14:57 64.12643 -53.60179 11922 ft 162 kts 253°
2026-04-20 14:57 64.12686 -53.62730 11922 ft 158 kts 253°
2026-04-20 14:57 64.12727 -53.65223 11920 ft 155 kts 253°
2026-04-20 14:57 64.12767 -53.67665 11921 ft 152 kts 252°
2026-04-20 14:58 64.12806 -53.70070 11922 ft 150 kts 252°
2026-04-20 14:58 64.12845 -53.72437 11920 ft 148 kts 252°
2026-04-20 14:58 64.12884 -53.74771 11922 ft 146 kts 252°
2026-04-20 14:58 64.12925 -53.77089 11972 ft 147 kts 252°
2026-04-20 14:59 64.12969 -53.79454 11925 ft 149 kts 251°
2026-04-20 14:59 64.13007 -53.81784 11919 ft 147 kts 251°
2026-04-20 14:59 64.13047 -53.84110 11923 ft 145 kts 250°
2026-04-20 14:59 64.13086 -53.86405 11924 ft 143 kts 250°
2026-04-20 15:00 64.13122 -53.88673 11922 ft 142 kts 250°
2026-04-20 15:00 64.13159 -53.90913 11925 ft 140 kts 250°
2026-04-20 15:00 64.13194 -53.93135 11925 ft 139 kts 249°
2026-04-20 15:00 64.13228 -53.95336 11898 ft 138 kts 249°
2026-04-20 15:01 64.13262 -53.97521 11897 ft 136 kts 249°
2026-04-20 15:01 64.13296 -53.99678 11895 ft 135 kts 249°
2026-04-20 15:01 64.13331 -54.01803 11897 ft 133 kts 248°
2026-04-20 15:01 64.13365 -54.03897 11898 ft 131 kts 248°
2026-04-20 15:02 64.13399 -54.05956 11895 ft 128 kts 248°
2026-04-20 15:02 64.13432 -54.07977 11897 ft 126 kts 247°
2026-04-20 15:02 64.13463 -54.09961 11894 ft 124 kts 247°
2026-04-20 15:02 64.13491 -54.11912 11896 ft 122 kts 246°
2026-04-20 15:03 64.13519 -54.13833 11895 ft 120 kts 246°
2026-04-20 15:03 64.13547 -54.15728 11893 ft 118 kts 246°
2026-04-20 15:03 64.13573 -54.17595 11894 ft 116 kts 245°
2026-04-20 15:03 64.13601 -54.19428 11893 ft 114 kts 245°
2026-04-20 15:04 64.13628 -54.21221 11891 ft 111 kts 244°
2026-04-20 15:04 64.13655 -54.22969 11908 ft 109 kts 244°
2026-04-20 15:04 64.13688 -54.24688 11895 ft 107 kts 243°
2026-04-20 15:04 64.13713 -54.26367 11889 ft 104 kts 242°
2026-04-20 15:05 64.13740 -54.28005 11892 ft 99 kts 241°
2026-04-20 15:05 64.13764 -54.29518 11889 ft 94 kts 239°
2026-04-20 15:05 64.13790 -54.30978 11884 ft 87 kts 237°
2026-04-20 15:05 64.13815 -54.32292 11869 ft 78 kts 234°
2026-04-20 15:06 64.13803 -54.33483 11832 ft 73 kts 207°
2026-04-20 15:06 64.13442 -54.34025 11633 ft 67 kts 219°
2026-04-20 15:06 64.13420 -54.35073 11634 ft 77 kts 246°
2026-04-20 15:06 64.13206 -54.36072 11379 ft 81 kts 245°
2026-04-20 15:07 64.13324 -54.37438 11452 ft 95 kts 258°
2026-04-20 15:07 64.13565 -54.38881 11512 ft 96 kts 229°
2026-04-20 15:07 64.13436 -54.40152 11271 ft 93 kts 256°
2026-04-20 15:07 64.13690 -54.41616 11326 ft 101 kts 256°
2026-04-20 15:08 64.13886 -54.43088 11352 ft 91 kts 237°
2026-04-20 15:08 64.13725 -54.44233 11161 ft 86 kts 243°
2026-04-20 15:08 64.13875 -54.45601 11196 ft 92 kts 252°
2026-04-20 15:08 64.13985 -54.47003 11243 ft 85 kts 210°
2026-04-20 15:09 64.13768 -54.48002 11020 ft 78 kts 245°
2026-04-20 15:09 64.13905 -54.49296 11051 ft 88 kts 232°
2026-04-20 15:09 64.13724 -54.50484 10749 ft 92 kts 251°
2026-04-20 15:09 64.13922 -54.51860 10840 ft 93 kts 250°
2026-04-20 15:10 64.13789 -54.53089 10635 ft 78 kts 251°
2026-04-20 15:10 64.13942 -54.54434 10679 ft 91 kts 251°
2026-04-20 15:10 64.13824 -54.55678 10397 ft 87 kts 257°
2026-04-20 15:10 64.13999 -54.57094 10486 ft 94 kts 253°
2026-04-20 15:11 64.13978 -54.58433 10338 ft 74 kts 227°
2026-04-20 15:11 64.14062 -54.59775 10280 ft 91 kts 253°
2026-04-20 15:11 64.14067 -54.61117 10161 ft 78 kts 213°
2026-04-20 15:11 64.14099 -54.62397 10050 ft 87 kts 253°
2026-04-20 15:12 64.14040 -54.63656 9801 ft 79 kts 235°
2026-04-20 15:12 64.14147 -54.65026 9780 ft 90 kts 254°
2026-04-20 15:12 64.14161 -54.66401 9547 ft 77 kts 240°
2026-04-20 15:12 64.14267 -54.67761 9458 ft 86 kts 246°
2026-04-20 15:13 64.14165 -54.69009 9068 ft 93 kts 250°
2026-04-20 15:13 64.14307 -54.70355 9127 ft 90 kts 220°
2026-04-20 15:13 64.14218 -54.71649 8755 ft 93 kts 253°
2026-04-20 15:13 64.14339 -54.73142 8422 ft 100 kts 251°
2026-04-20 15:14 64.14239 -54.74810 8504 ft 114 kts 263°
2026-04-20 15:14 64.14213 -54.76738 8555 ft 129 kts 271°
2026-04-20 15:14 64.14263 -54.78909 8621 ft 143 kts 273°
2026-04-20 15:14 64.14326 -54.81254 8722 ft 152 kts 273°
2026-04-20 15:15 64.14380 -54.83716 8852 ft 157 kts 272°
2026-04-20 15:15 64.14421 -54.86250 9002 ft 161 kts 271°
2026-04-20 15:15 64.14453 -54.88839 9163 ft 164 kts 271°
2026-04-20 15:15 64.14480 -54.91443 9386 ft 161 kts 271°
2026-04-20 15:16 64.14503 -54.93962 9648 ft 156 kts 271°
2026-04-20 15:16 64.14526 -54.96432 9879 ft 154 kts 271°
2026-04-20 15:16 64.14547 -54.98866 10096 ft 152 kts 271°
2026-04-20 15:16 64.14568 -55.01277 10301 ft 151 kts 271°
2026-04-20 15:17 64.14590 -55.03817 10194 ft 170 kts 271°
2026-04-20 15:17 64.14616 -55.06661 10059 ft 186 kts 271°
2026-04-20 15:17 64.14618 -55.09649 10090 ft 188 kts 267°
2026-04-20 15:17 64.14592 -55.12676 10087 ft 193 kts 271°
2026-04-20 15:18 64.14633 -55.15775 10077 ft 196 kts 272°
2026-04-20 15:18 64.14686 -55.18906 10081 ft 198 kts 272°
2026-04-20 15:18 64.14734 -55.22065 10080 ft 199 kts 272°
2026-04-20 15:18 64.14773 -55.25271 10079 ft 203 kts 271°
2026-04-20 15:19 64.14807 -55.28504 10079 ft 202 kts 271°
2026-04-20 15:19 64.14837 -55.31659 10076 ft 197 kts 271°
2026-04-20 15:19 64.14866 -55.34732 10070 ft 188 kts 271°
2026-04-20 15:19 64.14891 -55.37672 10082 ft 181 kts 271°
2026-04-20 15:20 64.14913 -55.40509 10079 ft 175 kts 271°
2026-04-20 15:20 64.14931 -55.43268 10077 ft 171 kts 271°
2026-04-20 15:20 64.14946 -55.45965 10077 ft 168 kts 271°
2026-04-20 15:20 64.14961 -55.48610 10078 ft 164 kts 271°
2026-04-20 15:21 64.14975 -55.51209 10078 ft 162 kts 271°
2026-04-20 15:21 64.14989 -55.53777 10079 ft 160 kts 271°
2026-04-20 15:21 64.15002 -55.56319 10077 ft 159 kts 271°
2026-04-20 15:21 64.15015 -55.58836 10077 ft 157 kts 271°
2026-04-20 15:22 64.15027 -55.61332 10079 ft 156 kts 271°
2026-04-20 15:22 64.15038 -55.63813 10077 ft 155 kts 271°
2026-04-20 15:22 64.15049 -55.66281 10084 ft 154 kts 271°
2026-04-20 15:22 64.15061 -55.68734 10079 ft 154 kts 271°
2026-04-20 15:23 64.15072 -55.71179 10078 ft 153 kts 271°
2026-04-20 15:23 64.15083 -55.73617 10078 ft 153 kts 271°
2026-04-20 15:23 64.15093 -55.76047 10081 ft 152 kts 270°
2026-04-20 15:23 64.15102 -55.78470 10079 ft 152 kts 270°
2026-04-20 15:24 64.15111 -55.80890 10077 ft 152 kts 270°
2026-04-20 15:24 64.15119 -55.83306 10078 ft 152 kts 270°
2026-04-20 15:24 64.15128 -55.85719 10078 ft 151 kts 270°
2026-04-20 15:24 64.15136 -55.88127 10079 ft 151 kts 270°
2026-04-20 15:25 64.15144 -55.90534 10079 ft 151 kts 270°
2026-04-20 15:25 64.15152 -55.92941 10079 ft 151 kts 270°
2026-04-20 15:25 64.15158 -55.95345 10079 ft 151 kts 270°
2026-04-20 15:25 64.15163 -55.96935 10079 ft 151 kts 270°
2026-04-20 15:26 64.15169 -55.99337 10078 ft 151 kts 270°
2026-04-20 15:26 64.15175 -56.01738 10078 ft 151 kts 270°
2026-04-20 15:26 64.15180 -56.04137 10078 ft 151 kts 270°
2026-04-20 15:26 64.15185 -56.06536 10078 ft 151 kts 270°
2026-04-20 15:27 64.15189 -56.08935 10077 ft 151 kts 270°
2026-04-20 15:27 64.15194 -56.11332 10079 ft 150 kts 270°
2026-04-20 15:27 64.15197 -56.13728 10079 ft 150 kts 270°
2026-04-20 15:27 64.15201 -56.16125 10079 ft 151 kts 270°
2026-04-20 15:28 64.15204 -56.18525 10079 ft 151 kts 270°
2026-04-20 15:28 64.15207 -56.20923 10080 ft 151 kts 270°
2026-04-20 15:28 64.15208 -56.23321 10079 ft 151 kts 270°
2026-04-20 15:28 64.15210 -56.25722 10078 ft 151 kts 270°
2026-04-20 15:29 64.15212 -56.28123 10079 ft 151 kts 270°
2026-04-20 15:29 64.15213 -56.30522 10079 ft 151 kts 270°
2026-04-20 15:29 64.15214 -56.32920 10079 ft 151 kts 270°
2026-04-20 15:29 64.15214 -56.35351 10079 ft 150 kts 270°
2026-04-20 15:30 64.15214 -56.37716 10079 ft 151 kts 270°
2026-04-20 15:30 64.15214 -56.40114 10079 ft 151 kts 270°
2026-04-20 15:30 64.15212 -56.42513 10079 ft 150 kts 270°
2026-04-20 15:30 64.15211 -56.44909 10079 ft 150 kts 270°
2026-04-20 15:31 64.15209 -56.47336 10080 ft 150 kts 270°
2026-04-20 15:31 64.15207 -56.49733 10080 ft 150 kts 270°
2026-04-20 15:31 64.15205 -56.52132 10079 ft 151 kts 270°
2026-04-20 15:31 64.15202 -56.54530 10080 ft 151 kts 270°
2026-04-20 15:32 64.15198 -56.56928 10080 ft 151 kts 270°
2026-04-20 15:32 64.15195 -56.59327 10079 ft 151 kts 270°
2026-04-20 15:32 64.15190 -56.61726 10079 ft 151 kts 270°
2026-04-20 15:32 64.15186 -56.64125 10080 ft 151 kts 270°
2026-04-20 15:33 64.15182 -56.66524 10080 ft 151 kts 270°
2026-04-20 15:33 64.15177 -56.68925 10079 ft 151 kts 270°
2026-04-20 15:33 64.15171 -56.71325 10080 ft 151 kts 270°
2026-04-20 15:33 64.15165 -56.73726 10080 ft 151 kts 270°
2026-04-20 15:34 64.15159 -56.76128 10079 ft 151 kts 270°
2026-04-20 15:34 64.15151 -56.78531 10079 ft 151 kts 270°
2026-04-20 15:34 64.15144 -56.80933 10079 ft 151 kts 270°
2026-04-20 15:34 64.15136 -56.83334 10080 ft 151 kts 270°
2026-04-20 15:35 64.15128 -56.85736 10079 ft 151 kts 270°
2026-04-20 15:35 64.15121 -56.88138 10079 ft 151 kts 269°
2026-04-20 15:35 64.15112 -56.90541 10079 ft 151 kts 270°
2026-04-20 15:35 64.15102 -56.92944 10080 ft 151 kts 269°
2026-04-20 15:36 64.15092 -56.95346 10080 ft 151 kts 269°
2026-04-20 15:36 64.15082 -56.97749 10079 ft 151 kts 269°
2026-04-20 15:36 64.15072 -57.00152 10079 ft 151 kts 269°
2026-04-20 15:36 64.15062 -57.02556 10079 ft 151 kts 269°
2026-04-20 15:37 64.15050 -57.04959 10079 ft 151 kts 269°
2026-04-20 15:37 64.15038 -57.07365 10080 ft 151 kts 269°
2026-04-20 15:37 64.15026 -57.09770 10079 ft 151 kts 269°
2026-04-20 15:37 64.15013 -57.12176 10079 ft 151 kts 269°
2026-04-20 15:38 64.15001 -57.14582 10079 ft 151 kts 269°
2026-04-20 15:38 64.14987 -57.17021 10080 ft 151 kts 269°
2026-04-20 15:38 64.14974 -57.19426 10079 ft 151 kts 269°
2026-04-20 15:38 64.14960 -57.21832 10079 ft 151 kts 269°
2026-04-20 15:39 64.14945 -57.24238 10079 ft 151 kts 269°
2026-04-20 15:39 64.14930 -57.26645 10079 ft 151 kts 269°
2026-04-20 15:39 64.14915 -57.29050 10079 ft 151 kts 269°
2026-04-20 15:39 64.14900 -57.31458 10079 ft 151 kts 269°
2026-04-20 15:40 64.14884 -57.33864 10079 ft 151 kts 269°
2026-04-20 15:40 64.14868 -57.36270 10079 ft 151 kts 269°
2026-04-20 15:40 64.14852 -57.38677 10079 ft 151 kts 269°
2026-04-20 15:40 64.14834 -57.41083 10079 ft 151 kts 269°
2026-04-20 15:41 64.14816 -57.43489 10079 ft 151 kts 269°
2026-04-20 15:41 64.14798 -57.45895 10079 ft 151 kts 269°
2026-04-20 15:41 64.14780 -57.48302 10079 ft 151 kts 269°
2026-04-20 15:41 64.14761 -57.50712 10080 ft 151 kts 269°
2026-04-20 15:42 64.14741 -57.53121 10079 ft 151 kts 269°
2026-04-20 15:42 64.14722 -57.55530 10079 ft 151 kts 269°
2026-04-20 15:42 64.14702 -57.57938 10079 ft 151 kts 269°
2026-04-20 15:42 64.14681 -57.60347 10079 ft 151 kts 269°
2026-04-20 15:43 64.14660 -57.62756 10085 ft 151 kts 269°
2026-04-20 15:43 64.14639 -57.65167 10079 ft 151 kts 269°
2026-04-20 15:43 64.14617 -57.67578 10085 ft 151 kts 269°
2026-04-20 15:43 64.14595 -57.69992 10079 ft 152 kts 269°
2026-04-20 15:44 64.14573 -57.72406 10079 ft 152 kts 269°
2026-04-20 15:44 64.14551 -57.74821 10079 ft 152 kts 269°
2026-04-20 15:44 64.14528 -57.77237 10080 ft 152 kts 269°
2026-04-20 15:44 64.14504 -57.79653 10079 ft 152 kts 269°
2026-04-20 15:45 64.14480 -57.82070 10079 ft 152 kts 269°
2026-04-20 15:45 64.14456 -57.84487 10079 ft 152 kts 269°
2026-04-20 15:45 64.14431 -57.86905 10079 ft 152 kts 269°
2026-04-20 15:45 64.14406 -57.89321 10079 ft 152 kts 269°
2026-04-20 15:46 64.14380 -57.91738 10079 ft 152 kts 269°
2026-04-20 15:46 64.14354 -57.94155 10079 ft 152 kts 269°
2026-04-20 15:46 64.14327 -57.96574 10079 ft 152 kts 269°
2026-04-20 15:46 64.14300 -57.98993 10084 ft 152 kts 269°
2026-04-20 15:47 64.14273 -58.01414 10079 ft 152 kts 269°
2026-04-20 15:47 64.14246 -58.03836 10079 ft 152 kts 269°
2026-04-20 15:47 64.14218 -58.06257 10079 ft 152 kts 269°
2026-04-20 15:47 64.14189 -58.08677 10079 ft 152 kts 268°
2026-04-20 15:48 64.14160 -58.11096 10079 ft 152 kts 269°
2026-04-20 15:48 64.14130 -58.13549 10079 ft 152 kts 269°
2026-04-20 15:48 64.14100 -58.15968 10079 ft 152 kts 268°
2026-04-20 15:48 64.14071 -58.18387 10079 ft 152 kts 268°
2026-04-20 15:49 64.14040 -58.20807 10079 ft 152 kts 268°
2026-04-20 15:49 64.14009 -58.23226 10079 ft 152 kts 268°
2026-04-20 15:49 64.13978 -58.25645 10079 ft 152 kts 268°
2026-04-20 15:49 64.13946 -58.28064 10079 ft 152 kts 268°
2026-04-20 15:50 64.13914 -58.30484 10079 ft 152 kts 268°
2026-04-20 15:50 64.13882 -58.32903 10079 ft 152 kts 268°
2026-04-20 15:50 64.13849 -58.35322 10079 ft 152 kts 268°
2026-04-20 15:50 64.13815 -58.37743 10079 ft 152 kts 268°
2026-04-20 15:51 64.13782 -58.40165 10083 ft 152 kts 268°
2026-04-20 15:51 64.13747 -58.42586 10079 ft 152 kts 268°
2026-04-20 15:51 64.13712 -58.45008 10079 ft 152 kts 268°
2026-04-20 15:51 64.13677 -58.47427 10079 ft 152 kts 268°
2026-04-20 15:52 64.13642 -58.49847 10079 ft 152 kts 268°
2026-04-20 15:52 64.13607 -58.52267 10079 ft 152 kts 268°
2026-04-20 15:52 64.13571 -58.54686 10079 ft 152 kts 268°
2026-04-20 15:53 64.13497 -58.59524 10079 ft 152 kts 268°
2026-04-20 15:53 64.13459 -58.61944 10079 ft 152 kts 268°
2026-04-20 15:53 64.13421 -58.64364 10079 ft 152 kts 268°
2026-04-20 15:53 64.13383 -58.66787 10079 ft 152 kts 268°
2026-04-20 15:54 64.13345 -58.69208 10079 ft 152 kts 268°
2026-04-20 15:54 64.13306 -58.71630 10079 ft 152 kts 268°
2026-04-20 15:54 64.13267 -58.74053 10079 ft 152 kts 268°
2026-04-20 15:54 64.13227 -58.76476 10079 ft 152 kts 268°
2026-04-20 15:55 64.13186 -58.78900 10079 ft 152 kts 268°
2026-04-20 15:55 64.13145 -58.81322 10079 ft 152 kts 268°
2026-04-20 15:55 64.13104 -58.83744 10079 ft 152 kts 268°
2026-04-20 15:55 64.13063 -58.86167 10079 ft 152 kts 268°
2026-04-20 15:56 64.13021 -58.88590 10079 ft 152 kts 268°
2026-04-20 15:56 64.12979 -58.91012 10079 ft 152 kts 268°
2026-04-20 15:56 64.12936 -58.93467 10079 ft 152 kts 268°
2026-04-20 15:56 64.12893 -58.95890 10079 ft 152 kts 268°
2026-04-20 15:57 64.12850 -58.98313 10079 ft 152 kts 268°
2026-04-20 15:57 64.12806 -59.00737 10079 ft 152 kts 268°
2026-04-20 15:57 64.12762 -59.03161 10079 ft 153 kts 268°
2026-04-20 15:57 64.12717 -59.05588 10079 ft 153 kts 268°
2026-04-20 15:58 64.12673 -59.08013 10079 ft 153 kts 268°
2026-04-20 15:58 64.12627 -59.10440 10079 ft 153 kts 268°
2026-04-20 15:58 64.12581 -59.12869 10079 ft 153 kts 268°
2026-04-20 15:58 64.12535 -59.15297 10079 ft 153 kts 268°
2026-04-20 15:59 64.12487 -59.17724 10079 ft 153 kts 268°
2026-04-20 15:59 64.12440 -59.20151 10079 ft 153 kts 268°
2026-04-20 15:59 64.12392 -59.22577 10080 ft 153 kts 268°
2026-04-20 15:59 64.12344 -59.25005 10079 ft 153 kts 268°
2026-04-20 16:00 64.12311 -59.26614 10079 ft 153 kts 268°
2026-04-20 16:00 64.12262 -59.29043 10079 ft 153 kts 268°
2026-04-20 16:00 64.12213 -59.31472 10083 ft 153 kts 268°
2026-04-20 16:00 64.12164 -59.33901 10079 ft 153 kts 267°
2026-04-20 16:01 64.12114 -59.36330 10079 ft 153 kts 267°
2026-04-20 16:01 64.12064 -59.38759 10079 ft 153 kts 267°
2026-04-20 16:01 64.12013 -59.41189 10080 ft 153 kts 267°
2026-04-20 16:01 64.11962 -59.43619 10079 ft 153 kts 267°
2026-04-20 16:02 64.11911 -59.46051 10079 ft 153 kts 267°
2026-04-20 16:02 64.11859 -59.48484 10079 ft 153 kts 267°
2026-04-20 16:02 64.11806 -59.50951 10079 ft 153 kts 267°
2026-04-20 16:02 64.11753 -59.53385 10079 ft 153 kts 267°
2026-04-20 16:03 64.11700 -59.55817 10079 ft 153 kts 267°
2026-04-20 16:03 64.11646 -59.58249 10079 ft 153 kts 267°
2026-04-20 16:03 64.11592 -59.60680 10079 ft 153 kts 267°
2026-04-20 16:03 64.11537 -59.63111 10080 ft 153 kts 267°
2026-04-20 16:04 64.11483 -59.65543 10078 ft 153 kts 267°
2026-04-20 16:04 64.11428 -59.67975 10079 ft 153 kts 267°
2026-04-20 16:04 64.11372 -59.70407 10079 ft 153 kts 267°
2026-04-20 16:04 64.11316 -59.72840 10078 ft 153 kts 267°
2026-04-20 16:05 64.11259 -59.75271 10079 ft 153 kts 267°
2026-04-20 16:05 64.11201 -59.77706 10080 ft 153 kts 267°
2026-04-20 16:05 64.11144 -59.80139 10078 ft 153 kts 267°
2026-04-20 16:05 64.11087 -59.82571 10080 ft 153 kts 267°
2026-04-20 16:06 64.11028 -59.85004 10078 ft 153 kts 267°
2026-04-20 16:06 64.10970 -59.87436 10079 ft 153 kts 267°
2026-04-20 16:06 64.10910 -59.89867 10079 ft 153 kts 267°
2026-04-20 16:06 64.10851 -59.92299 10079 ft 153 kts 267°
2026-04-20 16:07 64.10791 -59.94731 10079 ft 153 kts 267°
2026-04-20 16:07 64.10731 -59.97164 10079 ft 153 kts 267°
2026-04-20 16:07 64.10671 -59.99596 10079 ft 153 kts 267°
2026-04-20 16:07 64.10610 -60.02029 10080 ft 153 kts 267°
2026-04-20 16:08 64.10549 -60.04462 10079 ft 153 kts 267°
2026-04-20 16:08 64.10487 -60.06896 10081 ft 153 kts 267°
2026-04-20 16:08 64.10425 -60.09331 10079 ft 153 kts 267°
2026-04-20 16:08 64.10362 -60.11768 10080 ft 153 kts 266°
2026-04-20 16:09 64.10299 -60.14204 10078 ft 153 kts 266°
2026-04-20 16:09 64.10235 -60.16639 10079 ft 153 kts 266°
2026-04-20 16:09 64.10171 -60.19073 10078 ft 153 kts 266°
2026-04-20 16:09 64.10107 -60.21507 10080 ft 153 kts 266°
2026-04-20 16:10 64.10042 -60.23940 10079 ft 153 kts 266°
2026-04-20 16:10 64.09976 -60.26377 10078 ft 154 kts 266°
2026-04-20 16:10 64.09909 -60.28846 10086 ft 153 kts 266°
2026-04-20 16:10 64.09843 -60.31282 10079 ft 154 kts 266°
2026-04-20 16:11 64.09777 -60.33720 10079 ft 154 kts 266°
2026-04-20 16:11 64.09710 -60.36159 10079 ft 154 kts 266°
2026-04-20 16:11 64.09642 -60.38597 10079 ft 154 kts 266°
2026-04-20 16:11 64.09575 -60.41036 10079 ft 154 kts 266°
2026-04-20 16:12 64.09507 -60.43474 10079 ft 154 kts 266°
2026-04-20 16:12 64.09438 -60.45912 10078 ft 154 kts 266°
2026-04-20 16:12 64.09369 -60.48350 10080 ft 154 kts 266°
2026-04-20 16:12 64.09300 -60.50789 10078 ft 154 kts 266°
2026-04-20 16:13 64.09230 -60.53227 10079 ft 154 kts 266°
2026-04-20 16:13 64.09160 -60.55666 10082 ft 154 kts 266°
2026-04-20 16:13 64.09090 -60.58103 10079 ft 154 kts 266°
2026-04-20 16:13 64.09018 -60.60540 10079 ft 154 kts 266°
2026-04-20 16:14 64.08947 -60.62977 10079 ft 154 kts 266°
2026-04-20 16:14 64.08875 -60.65414 10079 ft 154 kts 266°
2026-04-20 16:14 64.08803 -60.67852 10079 ft 154 kts 266°
2026-04-20 16:14 64.08730 -60.70290 10079 ft 154 kts 266°
2026-04-20 16:15 64.08657 -60.72728 10079 ft 154 kts 266°
2026-04-20 16:15 64.08583 -60.75167 10082 ft 154 kts 266°
2026-04-20 16:15 64.08509 -60.77607 10078 ft 154 kts 266°
2026-04-20 16:15 64.08435 -60.80046 10079 ft 154 kts 266°
2026-04-20 16:16 64.08361 -60.82485 10079 ft 154 kts 266°
2026-04-20 16:16 64.08286 -60.84923 10079 ft 154 kts 266°
2026-04-20 16:16 64.08210 -60.87360 10084 ft 154 kts 266°
2026-04-20 16:16 64.08134 -60.89801 10079 ft 154 kts 266°
2026-04-20 16:17 64.08058 -60.92241 10079 ft 154 kts 266°
2026-04-20 16:17 64.07981 -60.94682 10080 ft 154 kts 266°
2026-04-20 16:17 64.07903 -60.97122 10078 ft 154 kts 266°
2026-04-20 16:17 64.07825 -60.99563 10079 ft 154 kts 266°
2026-04-20 16:18 64.07746 -61.02004 10079 ft 154 kts 266°
2026-04-20 16:18 64.07668 -61.04444 10079 ft 154 kts 266°
2026-04-20 16:18 64.07589 -61.06886 10079 ft 154 kts 266°
2026-04-20 16:18 64.07510 -61.09325 10079 ft 154 kts 266°
2026-04-20 16:19 64.07430 -61.11764 10079 ft 154 kts 266°
2026-04-20 16:19 64.07350 -61.14204 10079 ft 154 kts 266°
2026-04-20 16:19 64.07269 -61.16642 10079 ft 154 kts 266°
2026-04-20 16:19 64.07188 -61.19081 10084 ft 154 kts 266°
2026-04-20 16:20 64.07107 -61.21520 10079 ft 154 kts 266°
2026-04-20 16:20 64.07025 -61.23961 10078 ft 154 kts 266°
2026-04-20 16:20 64.06943 -61.26403 10083 ft 154 kts 265°
2026-04-20 16:20 64.06860 -61.28844 10079 ft 154 kts 266°
2026-04-20 16:21 64.06776 -61.31286 10079 ft 154 kts 265°
2026-04-20 16:21 64.06693 -61.33728 10079 ft 154 kts 265°
2026-04-20 16:21 64.06609 -61.36170 10079 ft 154 kts 265°
2026-04-20 16:21 64.06525 -61.38611 10081 ft 154 kts 265°
2026-04-20 16:22 64.06440 -61.41052 10078 ft 154 kts 265°
2026-04-20 16:22 64.06354 -61.43528 10079 ft 154 kts 265°
2026-04-20 16:22 64.06268 -61.45968 10079 ft 154 kts 265°
2026-04-20 16:22 64.06182 -61.48409 10079 ft 154 kts 265°
2026-04-20 16:23 64.06096 -61.50851 10079 ft 154 kts 265°
2026-04-20 16:23 64.06009 -61.53293 10079 ft 154 kts 265°
2026-04-20 16:23 64.05921 -61.55735 10083 ft 154 kts 265°
2026-04-20 16:23 64.05833 -61.58177 10082 ft 154 kts 265°
2026-04-20 16:24 64.05745 -61.60619 10079 ft 154 kts 265°
2026-04-20 16:24 64.05657 -61.63062 10078 ft 154 kts 265°
2026-04-20 16:24 64.05568 -61.65505 10079 ft 154 kts 265°
2026-04-20 16:24 64.05479 -61.67949 10079 ft 154 kts 265°
2026-04-20 16:25 64.05390 -61.70391 10079 ft 154 kts 265°
2026-04-20 16:25 64.05299 -61.72836 10078 ft 154 kts 265°
2026-04-20 16:25 64.05208 -61.75276 10079 ft 154 kts 265°
2026-04-20 16:25 64.05117 -61.77720 10079 ft 154 kts 265°
2026-04-20 16:26 64.05026 -61.80161 10079 ft 154 kts 265°
2026-04-20 16:26 64.04934 -61.82604 10079 ft 154 kts 265°
2026-04-20 16:26 64.04841 -61.85047 10082 ft 154 kts 265°
2026-04-20 16:26 64.04748 -61.87491 10079 ft 154 kts 265°
2026-04-20 16:27 64.04655 -61.89935 10079 ft 155 kts 265°
2026-04-20 16:27 64.04561 -61.92377 10079 ft 155 kts 265°
2026-04-20 16:27 64.04467 -61.94821 10079 ft 155 kts 265°
2026-04-20 16:27 64.04373 -61.97264 10079 ft 154 kts 265°
2026-04-20 16:28 64.04279 -61.99705 10081 ft 155 kts 265°
2026-04-20 16:28 64.04183 -62.02148 10079 ft 155 kts 265°
2026-04-20 16:28 64.04088 -62.04591 10079 ft 155 kts 265°
2026-04-20 16:28 64.03992 -62.07035 10082 ft 155 kts 265°
2026-04-20 16:29 64.03895 -62.09478 10079 ft 155 kts 265°
2026-04-20 16:29 64.03798 -62.11922 10078 ft 155 kts 265°
2026-04-20 16:29 64.03701 -62.14367 10078 ft 155 kts 265°
2026-04-20 16:29 64.03603 -62.16811 10082 ft 155 kts 265°
2026-04-20 16:30 64.03505 -62.19256 10079 ft 155 kts 265°
2026-04-20 16:30 64.03406 -62.21702 10079 ft 155 kts 265°
2026-04-20 16:30 64.03306 -62.24147 10078 ft 155 kts 265°
2026-04-20 16:30 64.03207 -62.26595 10079 ft 155 kts 265°
2026-04-20 16:31 64.03107 -62.29041 10079 ft 155 kts 265°
2026-04-20 16:31 64.03006 -62.31487 10078 ft 155 kts 265°
2026-04-20 16:31 64.02905 -62.33933 10078 ft 155 kts 265°
2026-04-20 16:31 64.02804 -62.36380 10077 ft 155 kts 265°
2026-04-20 16:32 64.02702 -62.38828 10078 ft 155 kts 265°
2026-04-20 16:32 64.02601 -62.41275 10078 ft 155 kts 265°
2026-04-20 16:32 64.02498 -62.43722 10079 ft 155 kts 265°
2026-04-20 16:32 64.02395 -62.46169 10078 ft 155 kts 265°
2026-04-20 16:33 64.02291 -62.48616 10078 ft 155 kts 265°
2026-04-20 16:33 64.02188 -62.51065 10078 ft 155 kts 264°
2026-04-20 16:33 64.02084 -62.53512 10079 ft 155 kts 264°
2026-04-20 16:33 64.01979 -62.55959 10079 ft 155 kts 264°
2026-04-20 16:34 64.01873 -62.58406 10081 ft 155 kts 264°
2026-04-20 16:34 64.01768 -62.60855 10078 ft 155 kts 264°
2026-04-20 16:34 64.01663 -62.63300 10079 ft 155 kts 264°
2026-04-20 16:34 64.01556 -62.65749 10078 ft 155 kts 264°
2026-04-20 16:35 64.01449 -62.68196 10078 ft 155 kts 264°
2026-04-20 16:35 64.01342 -62.70641 10084 ft 155 kts 264°
2026-04-20 16:35 64.01269 -62.72293 10083 ft 155 kts 264°
2026-04-20 16:35 64.01162 -62.74738 10079 ft 155 kts 264°
2026-04-20 16:36 64.01054 -62.77183 10083 ft 155 kts 264°
2026-04-20 16:36 64.00945 -62.79627 10079 ft 155 kts 264°
2026-04-20 16:36 64.00836 -62.82071 10078 ft 155 kts 264°
2026-04-20 16:36 64.00727 -62.84515 10078 ft 155 kts 264°
2026-04-20 16:37 64.00617 -62.86958 10079 ft 155 kts 264°
2026-04-20 16:37 64.00506 -62.89402 10083 ft 155 kts 264°
2026-04-20 16:37 64.00395 -62.91847 10079 ft 155 kts 264°
2026-04-20 16:37 64.00284 -62.94291 10079 ft 155 kts 264°
2026-04-20 16:38 64.00173 -62.96736 10078 ft 155 kts 264°
2026-04-20 16:38 64.00061 -62.99182 10084 ft 155 kts 264°
2026-04-20 16:38 63.99958 -63.01632 10078 ft 155 kts 266°
2026-04-20 16:38 63.99898 -63.04089 10079 ft 155 kts 268°
2026-04-20 16:39 63.99855 -63.06548 10080 ft 155 kts 268°
2026-04-20 16:39 63.99817 -63.09007 10080 ft 155 kts 268°
2026-04-20 16:39 63.99777 -63.11467 10078 ft 155 kts 268°
2026-04-20 16:39 63.99735 -63.13926 10079 ft 155 kts 268°
2026-04-20 16:40 63.99690 -63.16386 10079 ft 155 kts 268°
2026-04-20 16:40 63.99643 -63.18845 10081 ft 155 kts 268°
2026-04-20 16:40 63.99593 -63.21305 10079 ft 155 kts 268°
2026-04-20 16:40 63.99542 -63.23767 10082 ft 155 kts 267°
2026-04-20 16:41 63.99490 -63.26226 10079 ft 155 kts 267°
2026-04-20 16:41 63.99438 -63.28685 10079 ft 155 kts 267°
2026-04-20 16:41 63.99386 -63.31144 10079 ft 155 kts 267°
2026-04-20 16:41 63.99333 -63.33605 10079 ft 156 kts 267°
2026-04-20 16:42 63.99279 -63.36066 10079 ft 156 kts 267°
2026-04-20 16:42 63.99225 -63.38528 10079 ft 156 kts 267°
2026-04-20 16:42 63.99170 -63.40989 10079 ft 156 kts 267°
2026-04-20 16:42 63.99115 -63.43452 10079 ft 156 kts 267°
2026-04-20 16:43 63.99059 -63.45915 10078 ft 156 kts 267°
2026-04-20 16:43 63.99003 -63.48378 10079 ft 156 kts 267°
2026-04-20 16:43 63.98946 -63.50841 10079 ft 156 kts 267°
2026-04-20 16:43 63.98890 -63.53303 10079 ft 156 kts 267°
2026-04-20 16:44 63.98833 -63.55765 10079 ft 156 kts 267°
2026-04-20 16:44 63.98776 -63.58227 10079 ft 156 kts 267°
2026-04-20 16:44 63.98718 -63.60689 10079 ft 156 kts 267°
2026-04-20 16:44 63.98659 -63.63150 10079 ft 156 kts 267°
2026-04-20 16:45 63.98600 -63.65612 10079 ft 156 kts 267°
2026-04-20 16:45 63.98541 -63.68073 10079 ft 156 kts 267°
2026-04-20 16:45 63.98481 -63.70536 10079 ft 156 kts 267°
2026-04-20 16:45 63.98421 -63.73000 10078 ft 156 kts 267°
2026-04-20 16:46 63.98360 -63.75496 10079 ft 156 kts 267°
2026-04-20 16:46 63.98300 -63.77927 10079 ft 156 kts 267°
2026-04-20 16:46 63.98239 -63.80390 10079 ft 156 kts 267°
2026-04-20 16:46 63.98177 -63.82886 10078 ft 156 kts 267°
2026-04-20 16:47 63.98114 -63.85352 10079 ft 156 kts 267°
2026-04-20 16:47 63.98052 -63.87816 10079 ft 156 kts 267°
2026-04-20 16:47 63.97989 -63.90281 10079 ft 156 kts 266°
2026-04-20 16:47 63.97925 -63.92748 10076 ft 156 kts 266°
2026-04-20 16:48 63.97861 -63.95213 10079 ft 156 kts 267°
2026-04-20 16:48 63.97797 -63.97678 10079 ft 156 kts 266°
2026-04-20 16:48 63.97732 -64.00144 10079 ft 156 kts 266°
2026-04-20 16:48 63.97666 -64.02609 10078 ft 156 kts 266°
2026-04-20 16:49 63.97601 -64.05074 10078 ft 156 kts 266°
2026-04-20 16:49 63.97535 -64.07540 10079 ft 156 kts 266°
2026-04-20 16:49 63.97468 -64.10005 10079 ft 156 kts 266°
2026-04-20 16:49 63.97401 -64.12471 10079 ft 156 kts 266°
2026-04-20 16:50 63.97334 -64.14937 10079 ft 156 kts 266°
2026-04-20 16:50 63.97266 -64.17403 10078 ft 156 kts 266°
2026-04-20 16:50 63.97198 -64.19868 10079 ft 156 kts 266°
2026-04-20 16:50 63.97130 -64.22333 10079 ft 156 kts 266°
2026-04-20 16:51 63.97061 -64.24798 10078 ft 156 kts 266°
2026-04-20 16:51 63.96992 -64.27263 10078 ft 156 kts 266°
2026-04-20 16:51 63.96923 -64.29729 10085 ft 156 kts 266°
2026-04-20 16:51 63.96853 -64.32162 10079 ft 156 kts 266°
2026-04-20 16:52 63.96782 -64.34627 10078 ft 156 kts 266°
2026-04-20 16:52 63.96711 -64.37093 10079 ft 156 kts 266°
2026-04-20 16:52 63.96639 -64.39559 10079 ft 156 kts 266°
2026-04-20 16:52 63.96567 -64.42025 10078 ft 156 kts 266°
2026-04-20 16:53 63.96495 -64.44492 10079 ft 156 kts 266°
2026-04-20 16:53 63.96422 -64.46957 10079 ft 156 kts 266°
2026-04-20 16:53 63.96348 -64.49424 10079 ft 156 kts 266°
2026-04-20 16:53 63.96274 -64.51891 10083 ft 156 kts 266°
2026-04-20 16:54 63.96201 -64.54357 10079 ft 156 kts 266°
2026-04-20 16:54 63.96126 -64.56822 10079 ft 156 kts 266°
2026-04-20 16:54 63.96051 -64.59287 10079 ft 156 kts 266°
2026-04-20 16:54 63.95976 -64.61754 10079 ft 156 kts 266°
2026-04-20 16:55 63.95901 -64.64187 10079 ft 156 kts 266°
2026-04-20 16:55 63.95825 -64.66653 10079 ft 156 kts 266°
2026-04-20 16:55 63.95749 -64.69124 10079 ft 157 kts 266°
2026-04-20 16:55 63.95671 -64.71604 10079 ft 158 kts 266°
2026-04-20 16:56 63.95592 -64.74108 10079 ft 159 kts 266°
2026-04-20 16:56 63.95513 -64.76630 10080 ft 161 kts 266°
2026-04-20 16:56 63.95432 -64.79175 10078 ft 162 kts 266°
2026-04-20 16:56 63.95351 -64.81731 10080 ft 163 kts 266°
2026-04-20 16:57 63.95268 -64.84307 10079 ft 163 kts 266°
2026-04-20 16:57 63.95184 -64.86884 10077 ft 163 kts 266°
2026-04-20 16:57 63.95101 -64.89467 10080 ft 164 kts 266°
2026-04-20 16:57 63.95016 -64.92065 10081 ft 165 kts 266°
2026-04-20 16:58 63.94930 -64.94667 10078 ft 165 kts 266°
2026-04-20 16:58 63.94845 -64.97269 10079 ft 165 kts 266°
2026-04-20 16:58 63.94759 -64.99871 10079 ft 165 kts 266°
2026-04-20 16:58 63.94672 -65.02479 10078 ft 166 kts 266°
2026-04-20 16:59 63.94584 -65.05096 10078 ft 166 kts 266°
2026-04-20 16:59 63.94495 -65.07719 10073 ft 166 kts 265°
2026-04-20 16:59 63.94406 -65.10305 10078 ft 166 kts 265°
2026-04-20 16:59 63.94318 -65.12911 10076 ft 165 kts 266°
2026-04-20 17:00 63.94140 -65.18123 10076 ft 166 kts 265°
2026-04-20 17:00 63.94048 -65.20749 10076 ft 167 kts 265°
2026-04-20 17:00 63.93955 -65.23398 10081 ft 168 kts 265°
2026-04-20 17:01 63.93861 -65.26058 10078 ft 169 kts 265°
2026-04-20 17:01 63.93768 -65.28718 10081 ft 169 kts 265°
2026-04-20 17:01 63.93675 -65.31367 10077 ft 168 kts 265°
2026-04-20 17:01 63.93582 -65.34006 10083 ft 168 kts 265°
2026-04-20 17:02 63.93486 -65.36657 10082 ft 169 kts 265°
2026-04-20 17:02 63.93391 -65.39294 10080 ft 170 kts 265°
2026-04-20 17:02 63.93294 -65.41973 10085 ft 170 kts 265°
2026-04-20 17:02 63.93197 -65.44650 10079 ft 170 kts 265°
2026-04-20 17:03 63.93100 -65.47309 10075 ft 168 kts 265°
2026-04-20 17:03 63.93003 -65.49962 10079 ft 168 kts 265°
2026-04-20 17:03 63.92903 -65.52664 10082 ft 176 kts 265°
2026-04-20 17:03 63.92792 -65.55514 10083 ft 186 kts 265°
2026-04-20 17:04 63.92676 -65.58510 10081 ft 194 kts 265°
2026-04-20 17:04 63.92557 -65.61606 10083 ft 199 kts 265°
2026-04-20 17:04 63.92436 -65.64778 10083 ft 203 kts 265°
2026-04-20 17:04 63.92314 -65.68004 10076 ft 206 kts 265°
2026-04-20 17:05 63.92190 -65.71268 10081 ft 208 kts 265°
2026-04-20 17:05 63.92065 -65.74553 10073 ft 210 kts 265°
2026-04-20 17:05 63.92049 -65.77822 10898 ft 206 kts 262°
2026-04-20 17:05 63.92048 -65.81018 10824 ft 203 kts 254°
2026-04-20 17:06 63.91917 -65.84183 10754 ft 200 kts 251°
2026-04-20 17:06 63.91732 -65.87288 10716 ft 197 kts 250°
2026-04-20 17:06 63.91532 -65.90358 10648 ft 195 kts 252°
2026-04-20 17:06 63.91356 -65.93410 10568 ft 195 kts 253°
2026-04-20 17:07 63.91207 -65.96477 10491 ft 196 kts 254°
2026-04-20 17:07 63.91072 -65.99557 10416 ft 196 kts 255°
2026-04-20 17:07 63.90942 -66.02645 10340 ft 197 kts 255°
2026-04-20 17:07 63.90816 -66.05745 10264 ft 197 kts 255°
2026-04-20 17:08 63.90691 -66.08850 10187 ft 197 kts 256°
2026-04-20 17:08 63.90565 -66.11953 10110 ft 197 kts 256°
2026-04-20 17:08 63.90437 -66.15060 10024 ft 198 kts 256°
2026-04-20 17:08 63.90308 -66.18180 9947 ft 198 kts 256°
2026-04-20 17:09 63.90177 -66.21302 9871 ft 199 kts 256°
2026-04-20 17:09 63.90046 -66.24427 9803 ft 199 kts 256°
2026-04-20 17:09 63.89918 -66.27525 9794 ft 195 kts 256°
2026-04-20 17:09 63.89793 -66.30576 9797 ft 193 kts 256°
2026-04-20 17:10 63.89670 -66.33588 9810 ft 191 kts 256°
2026-04-20 17:10 63.89545 -66.36580 9796 ft 190 kts 256°
2026-04-20 17:10 63.89420 -66.39547 9801 ft 188 kts 256°
2026-04-20 17:10 63.89291 -66.42507 9800 ft 188 kts 255°
2026-04-20 17:11 63.89161 -66.45466 9799 ft 188 kts 255°
2026-04-20 17:11 63.89029 -66.48428 9801 ft 189 kts 255°
2026-04-20 17:11 63.88899 -66.51389 9802 ft 188 kts 256°
2026-04-20 17:11 63.88771 -66.54308 9799 ft 188 kts 256°
2026-04-20 17:12 63.88642 -66.57263 9796 ft 188 kts 255°
2026-04-20 17:12 63.88512 -66.60215 9797 ft 188 kts 255°
2026-04-20 17:12 63.88380 -66.63164 9793 ft 188 kts 255°
2026-04-20 17:12 63.88247 -66.66112 9794 ft 188 kts 255°
2026-04-20 17:13 63.88113 -66.69059 9793 ft 188 kts 255°
2026-04-20 17:13 63.87980 -66.72002 9790 ft 187 kts 255°
2026-04-20 17:13 63.87846 -66.74944 9794 ft 187 kts 255°
2026-04-20 17:13 63.87711 -66.77882 9794 ft 187 kts 255°
2026-04-20 17:14 63.87553 -66.80841 9806 ft 191 kts 256°
2026-04-20 17:14 63.87403 -66.83833 9798 ft 191 kts 257°
2026-04-20 17:14 63.87352 -66.86834 9818 ft 191 kts 266°
2026-04-20 17:14 63.87456 -66.89851 9788 ft 192 kts 268°
2026-04-20 17:15 63.87591 -66.92860 9799 ft 191 kts 268°
2026-04-20 17:15 63.87733 -66.95849 9802 ft 190 kts 268°
2026-04-20 17:15 63.87876 -66.98829 9800 ft 190 kts 268°
2026-04-20 17:15 63.88016 -67.01799 9801 ft 189 kts 268°
2026-04-20 17:16 63.88149 -67.04724 9799 ft 189 kts 268°
2026-04-20 17:16 63.88281 -67.07686 9798 ft 189 kts 268°
2026-04-20 17:16 63.88410 -67.10650 9799 ft 189 kts 268°
2026-04-20 17:16 63.88537 -67.13613 9799 ft 189 kts 268°
2026-04-20 17:17 63.88662 -67.16576 9799 ft 189 kts 268°
2026-04-20 17:17 63.88788 -67.19538 9799 ft 189 kts 268°
2026-04-20 17:17 63.88914 -67.22501 9799 ft 189 kts 268°
2026-04-20 17:17 63.89038 -67.25465 9798 ft 189 kts 268°
2026-04-20 17:18 63.89160 -67.28427 9797 ft 188 kts 268°
2026-04-20 17:18 63.89282 -67.31387 9798 ft 188 kts 268°
2026-04-20 17:18 63.89404 -67.34347 9799 ft 188 kts 268°
2026-04-20 17:18 63.89525 -67.37305 9799 ft 188 kts 268°
2026-04-20 17:19 63.89646 -67.40269 9798 ft 189 kts 268°
2026-04-20 17:19 63.89768 -67.43237 9799 ft 189 kts 268°
2026-04-20 17:19 63.89886 -67.46168 9799 ft 189 kts 268°
2026-04-20 17:19 63.90003 -67.49136 9798 ft 189 kts 268°
2026-04-20 17:20 63.90121 -67.52105 9798 ft 189 kts 268°
2026-04-20 17:20 63.90238 -67.55071 9798 ft 188 kts 268°
2026-04-20 17:20 63.90354 -67.58033 9799 ft 188 kts 268°
2026-04-20 17:20 63.90465 -67.60999 9816 ft 188 kts 268°
2026-04-20 17:21 63.90570 -67.63962 9796 ft 188 kts 269°
2026-04-20 17:21 63.90688 -67.66924 9797 ft 188 kts 269°
2026-04-20 17:21 63.90807 -67.69881 9796 ft 188 kts 269°
2026-04-20 17:21 63.90924 -67.72830 9796 ft 187 kts 269°
2026-04-20 17:22 63.91038 -67.75778 9797 ft 187 kts 269°
2026-04-20 17:22 63.91144 -67.78788 9597 ft 197 kts 268°
2026-04-20 17:22 63.91250 -67.81934 9325 ft 201 kts 270°
2026-04-20 17:22 63.91372 -67.85098 9025 ft 199 kts 270°
2026-04-20 17:23 63.91496 -67.88210 8702 ft 197 kts 270°
2026-04-20 17:23 63.91615 -67.91320 8363 ft 198 kts 270°
2026-04-20 17:23 63.91730 -67.94384 8042 ft 197 kts 270°
2026-04-20 17:23 63.91844 -67.97482 7736 ft 196 kts 271°
2026-04-20 17:24 63.91957 -68.00570 7439 ft 196 kts 271°
2026-04-20 17:24 63.92069 -68.03649 7160 ft 195 kts 271°
2026-04-20 17:24 63.92180 -68.06714 6896 ft 194 kts 271°
2026-04-20 17:24 63.92288 -68.09772 6633 ft 194 kts 271°
2026-04-20 17:25 63.92396 -68.12827 6380 ft 194 kts 271°
2026-04-20 17:25 63.92503 -68.15883 6136 ft 194 kts 271°
2026-04-20 17:25 63.92611 -68.18937 5878 ft 194 kts 271°
2026-04-20 17:25 63.92717 -68.21981 5623 ft 192 kts 271°
2026-04-20 17:26 63.92822 -68.25009 5375 ft 192 kts 271°
2026-04-20 17:26 63.92926 -68.28030 5133 ft 191 kts 271°
2026-04-20 17:26 63.93031 -68.31043 4892 ft 191 kts 271°
2026-04-20 17:26 63.93134 -68.34046 4661 ft 190 kts 271°
2026-04-20 17:27 63.93237 -68.37034 4441 ft 189 kts 271°
2026-04-20 17:27 63.93304 -68.39004 4295 ft 189 kts 271°
2026-04-20 17:27 63.93403 -68.41985 4095 ft 189 kts 271°
2026-04-20 17:27 63.93484 -68.44959 3891 ft 188 kts 272°
2026-04-20 17:28 63.93583 -68.47928 3681 ft 188 kts 273°
2026-04-20 17:28 63.93690 -68.50901 3485 ft 189 kts 272°
2026-04-20 17:28 63.93794 -68.53883 3290 ft 189 kts 272°
2026-04-20 17:28 63.93896 -68.56869 3089 ft 190 kts 272°
2026-04-20 17:29 63.93986 -68.59825 2994 ft 185 kts 272°
2026-04-20 17:29 63.94080 -68.62732 2872 ft 184 kts 272°
2026-04-20 17:29 63.94159 -68.65634 2783 ft 182 kts 270°
2026-04-20 17:29 63.94202 -68.68480 2764 ft 178 kts 270°
2026-04-20 17:30 63.93990 -68.71171 2757 ft 171 kts 243°
2026-04-20 17:30 63.93305 -68.73301 2739 ft 164 kts 227°
2026-04-20 17:30 63.92552 -68.75085 2758 ft 150 kts 225°
2026-04-20 17:30 63.91833 -68.76706 2759 ft 142 kts 225°
2026-04-20 17:31 63.91147 -68.78239 2766 ft 136 kts 225°
2026-04-20 17:31 63.90481 -68.79740 2760 ft 133 kts 225°
2026-04-20 17:31 63.89827 -68.81220 2735 ft 132 kts 225°
2026-04-20 17:31 63.89189 -68.82640 2750 ft 128 kts 220°
2026-04-20 17:32 63.88366 -68.83276 2774 ft 131 kts 178°
2026-04-20 17:32 63.87540 -68.82376 2780 ft 138 kts 140°
2026-04-20 17:32 63.86886 -68.80708 2786 ft 144 kts 135°
2026-04-20 17:32 63.86198 -68.78998 2735 ft 150 kts 137°
2026-04-20 17:33 63.85440 -68.77294 2611 ft 156 kts 140°
2026-04-20 17:33 63.84626 -68.75645 2541 ft 157 kts 151°
2026-04-20 17:33 63.83751 -68.74301 2566 ft 151 kts 133°
2026-04-20 17:33 63.83131 -68.72378 2592 ft 152 kts 131°
2026-04-20 17:34 63.82431 -68.70539 2470 ft 158 kts 137°
2026-04-20 17:34 63.81610 -68.68797 2233 ft 165 kts 140°
2026-04-20 17:34 63.80769 -68.66960 1965 ft 170 kts 138°
2026-04-20 17:34 63.79948 -68.65137 1684 ft 158 kts 138°
2026-04-20 17:35 63.79226 -68.63527 1285 ft 129 kts 139°
2026-04-20 17:35 63.78639 -68.62221 828 ft 111 kts 139°
2026-04-20 17:35 63.78111 -68.61027 543 ft 103 kts 139°
2026-04-20 17:35 63.77564 -68.59839 363 ft 109 kts 139°
2026-04-20 17:36 63.77032 -68.58627 234 ft 110 kts 137°
2026-04-20 17:36 63.76474 -68.57378 126 ft 118 kts 139°
2026-04-20 17:36 63.75921 -68.56129 92 ft 93 kts 142°
2026-04-20 17:36 63.75556 -68.55433 90 ft 48 kts 136°
2026-04-20 17:37 63.75471 -68.55109 95 ft 21 kts 57°
2026-04-20 17:37 63.75557 -68.54865 93 ft 21 kts 48°
2026-04-20 17:37 63.75610 -68.54722 89 ft 2 kts 52°
2026-04-20 17:37 63.75630 -68.54667 91 ft 7 kts 39°
2026-04-20 17:38 63.75654 -68.54731 89 ft 5 kts 322°
2026-04-20 17:38 63.75672 -68.54693 89 ft 3 kts 60°
2026-04-20 17:38 63.75681 -68.54668 89 ft 1 kts 43°
2026-04-20 17:38 63.75682 -68.54667 89 ft 0 kts 43°